Date String (YYYY-MM-DD hh:mm:ss) UTC,Instrument flags,absolute air pressure of the measurement (hPa),sample flow rate (lpm),inlet stack bypass flow (lpm),air temperature of the measurement (°C),ambient temperature measured by the external sensor (°C),aerosol sample conditioner tube jacket temperature (°C),OPC LED temperature (°C),internal box temperature (°C),relative humidity of the measurement (%),span deviation,mass concentration of particles derived from Lorenz-Mie calculation of OPC scattering (μg/m³),mass concentration of particles derived from Lorenz-Mie calculation of OPC scattering (μg/m³),mass concentration of particles derived from Lorenz-Mie calculation of OPC scattering (μg/m³)
DateTimeUTC,F1_M11,P_M11,Q1_M11,Q2_M11,T1_M11,T2_M11,T3_M11,T4_M11,T5_M11,U1_M11,ZSPAN_M11,X2_M11,X0_M11,X1_M11
2023-09-13 04:00:00,SystemResetWarning,0832.1,4.99,000.00,028.3,027.2,000.0,036.7,029.9,22.3,-000.8,0005.02,0008.57,0004.68
2023-09-13 04:01:00,SystemResetWarning,0832.1,5.00,000.00,028.3,027.2,000.0,036.7,030.0,22.3,-000.4,0004.99,0008.75,0004.67
2023-09-13 04:02:00,SystemResetWarning,0832.1,5.00,000.00,028.4,027.3,000.0,036.7,030.0,22.3,-000.2,0004.98,0008.73,0004.65
2023-09-13 04:03:00,SystemResetWarning,0832.1,5.01,000.00,028.4,027.3,000.0,036.7,030.0,22.2,-000.1,0004.97,0009.18,0004.65
2023-09-13 04:04:00,SystemResetWarning,0832.1,5.00,000.00,028.4,027.4,000.0,036.8,030.1,22.2,0000.3,0004.95,0009.75,0004.65
2023-09-13 04:05:00,SystemResetWarning,0832.1,5.01,000.00,028.5,027.4,000.0,036.8,030.1,22.2,0001.1,0004.91,0010.15,0004.64
2023-09-13 04:06:00,SystemResetWarning,0832.1,4.99,000.00,028.5,026.9,000.0,036.8,030.1,22.1,0001.2,0004.90,0010.28,0004.63
2023-09-13 04:07:00,SystemResetWarning,0832.0,4.99,000.00,028.4,025.1,000.0,036.7,029.7,22.2,0001.3,0004.90,0010.12,0004.61
2023-09-13 04:08:00,SystemResetWarning,0832.0,5.01,000.00,028.4,024.3,000.0,036.6,029.6,22.4,0001.2,0004.87,0010.20,0004.59
2023-09-13 04:09:00,SystemResetWarning,0832.0,5.01,000.00,028.2,024.4,000.0,036.6,029.4,22.6,0000.3,0004.85,0010.25,0004.58
2023-09-13 04:10:00,SystemResetWarning,0832.0,5.00,000.00,028.1,024.7,000.0,036.6,029.4,22.5,-000.1,0004.88,0010.43,0004.57
2023-09-13 04:11:00,SystemResetWarning,0832.1,5.00,000.00,028.1,025.1,000.0,036.6,029.4,22.5,-000.6,0004.89,0010.29,0004.57
2023-09-13 04:12:00,SystemResetWarning,0832.1,5.00,000.00,028.1,025.5,000.0,036.6,029.4,22.6,-000.8,0004.91,0010.17,0004.56
2023-09-13 04:13:00,SystemResetWarning,0832.1,5.01,000.00,028.1,025.8,000.0,036.6,029.5,22.5,-000.3,0004.88,0010.00,0004.56
2023-09-13 04:14:00,SystemResetWarning,0832.1,5.00,000.00,028.1,026.0,000.0,036.6,029.5,22.8,-000.2,0004.88,0009.79,0004.56
2023-09-13 04:15:00,SystemResetWarning,0832.1,5.00,000.00,028.1,026.3,000.0,036.6,029.6,22.7,0000.2,0004.87,0009.26,0004.55
2023-09-13 04:16:00,SystemResetWarning,0832.1,5.01,000.00,028.1,026.4,000.0,036.6,029.6,22.7,-000.1,0004.86,0009.41,0004.54
2023-09-13 04:17:00,SystemResetWarning,0832.0,5.00,000.00,028.1,026.6,000.0,036.6,029.7,22.5,-000.0,0004.86,0009.37,0004.54
2023-09-13 04:18:00,SystemResetWarning,0832.0,5.00,000.00,028.1,026.7,000.0,036.6,029.7,22.4,-000.3,0004.87,0009.33,0004.54
2023-09-13 04:19:00,SystemResetWarning,0832.1,5.00,000.00,028.2,026.8,000.0,036.6,029.7,22.4,0000.0,0004.92,0009.33,0004.54
2023-09-13 04:20:00,SystemResetWarning,0832.0,5.00,000.00,028.2,026.9,000.0,036.6,029.7,22.5,0001.1,0004.92,0009.28,0004.55
2023-09-13 04:21:00,SystemResetWarning,0832.0,5.00,000.00,028.2,026.9,000.0,036.6,029.8,22.3,0001.6,0004.90,0009.15,0004.54
2023-09-13 04:22:00,SystemResetWarning,0832.0,5.00,000.00,028.2,027.0,000.0,036.6,029.8,22.1,0002.3,0004.89,0009.08,0004.53
2023-09-13 04:23:00,SystemResetWarning,0832.0,4.99,000.00,028.3,027.1,000.0,036.6,029.9,22.2,0002.4,0004.86,0008.82,0004.52
2023-09-13 04:24:00,SystemResetWarning,0832.1,5.00,000.00,028.3,027.1,000.0,036.7,029.9,22.2,0002.2,0004.87,0008.95,0004.51
2023-09-13 04:25:00,SystemResetWarning,0832.1,5.01,000.00,028.3,027.2,000.0,036.7,029.9,22.0,0002.1,0004.87,0008.91,0004.51
2023-09-13 04:26:00,SystemResetWarning,0832.1,5.01,000.00,028.3,027.2,000.0,036.7,030.0,22.1,0002.1,0004.88,0008.83,0004.52
2023-09-13 04:27:00,SystemResetWarning,0832.1,5.00,000.00,028.4,027.3,000.0,036.7,030.0,21.8,0001.9,0004.88,0008.39,0004.52
2023-09-13 04:28:00,SystemResetWarning,0832.1,5.00,000.00,028.4,027.3,000.0,036.7,030.0,21.8,0001.5,0004.86,0007.95,0004.51
2023-09-13 04:29:00,SystemResetWarning,0832.1,4.99,000.00,028.4,027.3,000.0,036.7,030.0,21.7,0000.8,0004.86,0008.08,0004.51
2023-09-13 04:30:00,SystemResetWarning,0832.1,4.99,000.00,028.5,027.3,000.0,036.8,030.1,21.6,0000.0,0004.82,0008.03,0004.50
2023-09-13 04:31:00,SystemResetWarning,0832.1,5.00,000.00,028.5,027.4,000.0,036.8,030.1,21.5,0000.0,0004.83,0008.07,0004.49
2023-09-13 04:32:00,SystemResetWarning,0832.1,5.00,000.00,028.5,027.4,000.0,036.8,030.1,21.5,0000.0,0004.84,0008.17,0004.49
2023-09-13 04:33:00,SystemResetWarning,0832.1,4.99,000.00,028.5,026.3,000.0,036.8,029.9,21.4,0000.0,0004.87,0008.31,0004.50
2023-09-13 04:34:00,SystemResetWarning,0832.1,5.01,000.00,028.4,024.7,000.0,036.7,029.7,21.4,0000.0,0004.90,0009.24,0004.52
2023-09-13 04:35:00,SystemResetWarning,0832.0,5.00,000.00,028.3,024.4,000.0,036.6,029.6,21.5,0000.0,0004.91,0009.91,0004.53
2023-09-13 04:36:00,SystemResetWarning,0832.0,5.01,000.00,028.2,024.6,000.0,036.6,029.4,21.7,-000.1,0004.92,0010.33,0004.53
2023-09-13 04:37:00,SystemResetWarning,0832.0,5.01,000.00,028.1,024.9,000.0,036.6,029.4,21.6,-000.1,0004.91,0010.31,0004.52
2023-09-13 04:38:00,SystemResetWarning,0832.0,5.00,000.00,028.1,025.2,000.0,036.6,029.4,21.7,-000.4,0004.93,0010.18,0004.52
2023-09-13 04:39:00,SystemResetWarning,0832.0,5.00,000.00,028.1,025.6,000.0,036.6,029.4,21.7,0000.1,0004.98,0010.21,0004.52
2023-09-13 04:40:00,SystemResetWarning,0832.0,5.00,000.00,028.1,025.9,000.0,036.6,029.5,21.7,0001.0,0004.98,0010.10,0004.54
2023-09-13 04:41:00,SystemResetWarning,0832.1,5.00,000.00,028.1,026.1,000.0,036.6,029.5,21.6,0001.0,0004.99,0010.13,0004.54
2023-09-13 04:42:00,SystemResetWarning,0832.1,4.99,000.00,028.1,026.3,000.0,036.6,029.6,21.6,0001.0,0005.02,0010.19,0004.57
2023-09-13 04:43:00,SystemResetWarning,0832.0,5.00,000.00,028.1,026.5,000.0,036.6,029.6,21.6,0000.6,0005.01,0010.07,0004.58
2023-09-13 04:44:00,SystemResetWarning,0832.0,5.00,000.00,028.1,026.6,000.0,036.6,029.6,21.6,0000.0,0004.98,0009.96,0004.58
2023-09-13 04:45:00,SystemResetWarning,0832.1,5.00,000.00,028.1,026.7,000.0,036.6,029.7,21.7,0000.0,0004.93,0009.21,0004.57
2023-09-13 04:46:00,SystemResetWarning,0832.1,5.00,000.00,028.2,026.8,000.0,036.6,029.7,21.7,0000.0,0004.93,0008.87,0004.57
2023-09-13 04:47:00,SystemResetWarning,0832.0,5.00,000.00,028.2,026.9,000.0,036.6,029.7,21.7,0000.2,0004.95,0008.44,0004.58
2023-09-13 04:48:00,SystemResetWarning,0832.1,4.99,000.00,028.2,026.9,000.0,036.6,029.8,21.7,0000.3,0004.98,0009.72,0004.59
2023-09-13 04:49:00,SystemResetWarning,0832.0,4.99,000.00,028.2,027.0,000.0,036.6,029.8,21.6,0000.4,0004.97,0009.72,0004.59
2023-09-13 04:50:00,SystemResetWarning,0832.1,5.00,000.00,028.2,027.0,000.0,036.7,029.8,21.7,0000.1,0004.93,0009.66,0004.59
2023-09-13 04:51:00,SystemResetWarning,0832.0,5.00,000.00,028.3,027.1,000.0,036.7,029.9,22.0,0000.0,0004.93,0009.66,0004.60
2023-09-13 04:52:00,SystemResetWarning,0832.1,5.01,000.00,028.3,027.1,000.0,036.7,029.9,21.9,0000.0,0004.91,0009.79,0004.61
2023-09-13 04:53:00,SystemResetWarning,0832.1,5.00,000.00,028.3,027.2,000.0,036.7,030.0,21.7,0000.0,0004.91,0009.86,0004.60
2023-09-13 04:54:00,SystemResetWarning,0832.1,4.99,000.00,028.4,027.2,000.0,036.7,030.0,21.4,0000.0,0004.92,0009.89,0004.60
2023-09-13 04:55:00,SystemResetWarning,0832.1,4.99,000.00,028.4,027.3,000.0,036.7,030.0,21.3,0000.0,0004.93,0009.86,0004.60
2023-09-13 04:56:00,SystemResetWarning,0832.1,5.01,000.00,028.4,027.3,000.0,036.7,030.0,21.2,0000.0,0004.95,0009.87,0004.60
2023-09-13 04:57:00,SystemResetWarning,0832.1,5.00,000.00,028.4,027.3,000.0,036.8,030.0,21.2,0000.0,0004.97,0009.84,0004.60
2023-09-13 04:58:00,SystemResetWarning,0832.2,5.01,000.00,028.5,027.3,000.0,036.8,030.1,21.3,0000.0,0004.97,0010.08,0004.59
2023-09-13 04:59:00,SystemResetWarning,0832.2,5.01,000.00,028.5,027.4,000.0,036.8,030.1,22.2,0000.0,0004.94,0008.74,0004.58
